ECMWFFLT1_prec_pwat_132.txt.gz
Precipitable_Water
1.36 1.39 1.45 1.51 1.52 1.51 1.48 1.46 1.42 1.42 1.50 1.53 1.54 1.53 1.47 1.39 1.37 1.37 1.36 1.36 1.30 1.28 1.30 1.22 1.18 1.16 1.12 1.13 1.21 1.30 1.36 1.40 1.40 1.39 1.44 1.46 1.50 1.52 1.47 1.48 1.49 1.50 1.51 1.47 1.52 1.54 1.56 1.59 1.60 1.60 1.59 1.55 1.52 1.57 1.60 1.61 1.61 1.58 1.56 1.59 1.57 1.57 1.55
1.33 1.35 1.41 1.50 1.51 1.51 1.52 1.51 1.46 1.42 1.47 1.52 1.56 1.56 1.52 1.45 1.42 1.39 1.39 1.38 1.34 1.29 1.29 1.25 1.22 1.19 1.12 1.10 1.16 1.24 1.29 1.35 1.40 1.41 1.45 1.47 1.50 1.52 1.52 1.49 1.51 1.51 1.50 1.51 1.52 1.60 1.65 1.68 1.68 1.67 1.64 1.63 1.58 1.60 1.61 1.59 1.57 1.52 1.49 1.53 1.53 1.51 1.51
1.36 1.39 1.40 1.48 1.51 1.51 1.53 1.56 1.51 1.45 1.44 1.50 1.54 1.56 1.53 1.49 1.46 1.43 1.42 1.42 1.38 1.33 1.33 1.28 1.25 1.25 1.21 1.14 1.12 1.16 1.23 1.29 1.33 1.36 1.39 1.43 1.47 1.50 1.52 1.51 1.48 1.49 1.51 1.54 1.52 1.52 1.60 1.63 1.68 1.70 1.69 1.65 1.64 1.61 1.60 1.59 1.58 1.55 1.52 1.53 1.53 1.51 1.51
1.38 1.42 1.43 1.49 1.56 1.58 1.59 1.68 1.62 1.48 1.45 1.47 1.52 1.55 1.55 1.53 1.51 1.50 1.50 1.47 1.42 1.38 1.31 1.30 1.26 1.27 1.28 1.20 1.14 1.12 1.17 1.22 1.26 1.30 1.35 1.41 1.46 1.52 1.50 1.49 1.49 1.50 1.54 1.59 1.60 1.59 1.57 1.57 1.59 1.62 1.65 1.64 1.64 1.66 1.64 1.61 1.63 1.62 1.58 1.54 1.51 1.51 1.54
1.42 1.49 1.47 1.48 1.54 1.56 1.60 1.61 1.61 1.60 1.47 1.46 1.52 1.56 1.56 1.60 1.56 1.54 1.53 1.54 1.50 1.42 1.38 1.33 1.30 1.29 1.32 1.31 1.24 1.20 1.17 1.18 1.23 1.28 1.29 1.34 1.41 1.48 1.47 1.47 1.47 1.48 1.53 1.63 1.69 1.71 1.63 1.58 1.57 1.58 1.58 1.59 1.61 1.67 1.68 1.69 1.68 1.70 1.68 1.65 1.58 1.59 1.56
1.38 1.46 1.47 1.46 1.51 1.55 1.59 1.63 1.61 1.59 1.56 1.47 1.47 1.51 1.53 1.58 1.60 1.54 1.54 1.54 1.51 1.51 1.46 1.40 1.36 1.33 1.30 1.33 1.32 1.28 1.28 1.25 1.25 1.28 1.27 1.29 1.33 1.38 1.40 1.44 1.45 1.47 1.50 1.55 1.64 1.65 1.68 1.66 1.64 1.63 1.60 1.59 1.58 1.59 1.63 1.68 1.71 1.74 1.73 1.71 1.67 1.66 1.63
1.38 1.44 1.50 1.52 1.51 1.56 1.60 1.60 1.63 1.64 1.64 1.63 1.53 1.54 1.55 1.56 1.55 1.57 1.57 1.54 1.53 1.48 1.47 1.41 1.38 1.36 1.32 1.35 1.34 1.32 1.28 1.28 1.28 1.28 1.32 1.32 1.34 1.35 1.36 1.40 1.43 1.44 1.48 1.56 1.58 1.62 1.61 1.63 1.62 1.64 1.65 1.66 1.66 1.64 1.65 1.65 1.70 1.78 1.78 1.74 1.72 1.72 1.69
1.43 1.41 1.48 1.53 1.57 1.60 1.64 1.61 1.60 1.65 1.68 1.67 1.60 1.50 1.50 1.54 1.56 1.56 1.55 1.55 1.56 1.52 1.50 1.49 1.42 1.37 1.36 1.37 1.39 1.35 1.33 1.33 1.36 1.36 1.37 1.35 1.37 1.36 1.37 1.41 1.44 1.45 1.50 1.51 1.56 1.62 1.61 1.60 1.63 1.65 1.66 1.68 1.68 1.71 1.74 1.74 1.74 1.80 1.84 1.81 1.76 1.73 1.75
1.43 1.49 1.50 1.53 1.57 1.62 1.69 1.70 1.62 1.59 1.64 1.64 1.64 1.56 1.46 1.51 1.54 1.54 1.54 1.56 1.58 1.53 1.50 1.52 1.51 1.45 1.40 1.39 1.40 1.40 1.40 1.39 1.37 1.39 1.40 1.39 1.40 1.40 1.43 1.50 1.55 1.60 1.57 1.57 1.60 1.63 1.64 1.67 1.70 1.72 1.73 1.70 1.69 1.72 1.75 1.76 1.76 1.82 1.85 1.82 1.79 1.77 1.79
1.32 1.37 1.48 1.59 1.63 1.70 1.72 1.73 1.74 1.66 1.62 1.64 1.64 1.63 1.55 1.50 1.54 1.56 1.54 1.55 1.58 1.56 1.53 1.53 1.55 1.54 1.46 1.41 1.41 1.44 1.44 1.40 1.40 1.38 1.39 1.38 1.41 1.41 1.47 1.54 1.58 1.67 1.67 1.67 1.71 1.69 1.71 1.72 1.74 1.76 1.78 1.78 1.74 1.76 1.76 1.75 1.75 1.78 1.82 1.79 1.78 1.78 1.79
1.30 1.33 1.39 1.46 1.55 1.74 1.74 1.73 1.72 1.71 1.68 1.67 1.69 1.63 1.61 1.53 1.52 1.53 1.54 1.55 1.57 1.59 1.60 1.56 1.57 1.55 1.52 1.43 1.39 1.43 1.44 1.43 1.43 1.40 1.40 1.39 1.41 1.42 1.48 1.54 1.59 1.65 1.69 1.72 1.71 1.74 1.75 1.75 1.76 1.78 1.84 1.89 1.98 1.99 2.04 2.02 2.01 1.94 1.83 1.78 1.76 1.77 1.78
1.29 1.30 1.33 1.41 1.49 1.60 1.73 1.74 1.79 1.79 1.72 1.69 1.72 1.71 1.69 1.61 1.53 1.53 1.54 1.56 1.59 1.59 1.60 1.59 1.58 1.55 1.52 1.48 1.40 1.40 1.42 1.44 1.46 1.45 1.47 1.48 1.46 1.44 1.46 1.52 1.58 1.62 1.67 1.71 1.71 1.73 1.77 1.79 1.95 2.06 2.08 2.05 1.96 1.94 1.83 1.80 1.97 1.91 1.93 1.97 1.99 1.90 1.79
1.21 1.25 1.29 1.34 1.41 1.50 1.58 1.69 1.80 1.83 1.80 1.78 1.74 1.76 1.75 1.68 1.61 1.55 1.52 1.55 1.60 1.61 1.60 1.60 1.59 1.55 1.52 1.51 1.44 1.41 1.42 1.44 1.45 1.49 1.53 1.54 1.55 1.53 1.49 1.50 1.54 1.60 1.62 1.69 1.71 1.76 1.79 1.90 1.92 1.89 1.87 1.95 2.00 1.98 1.98 1.95 1.90 1.85 1.84 1.87 1.87 1.94 1.87
1.16 1.20 1.25 1.33 1.42 1.48 1.48 1.47 1.60 1.78 1.89 1.89 1.82 1.77 1.77 1.76 1.72 1.65 1.57 1.57 1.62 1.64 1.61 1.62 1.59 1.54 1.51 1.49 1.44 1.42 1.45 1.47 1.48 1.51 1.56 1.59 1.58 1.56 1.55 1.52 1.52 1.55 1.62 1.69 1.73 1.75 1.80 1.85 1.88 1.98 1.99 1.98 2.03 2.01 1.95 1.93 1.92 1.91 1.87 1.84 1.91 1.96 1.91
1.09 1.12 1.19 1.22 1.30 1.44 1.52 1.56 1.56 1.62 1.73 1.82 1.91 1.81 1.74 1.72 1.72 1.73 1.66 1.64 1.63 1.65 1.67 1.67 1.61 1.55 1.52 1.46 1.42 1.41 1.47 1.51 1.52 1.53 1.56 1.59 1.59 1.58 1.55 1.53 1.53 1.55 1.58 1.65 1.71 1.77 1.80 1.85 1.88 1.92 1.97 2.01 1.98 1.94 1.92 1.92 1.95 1.95 1.92 1.87 1.84 1.83 1.78
1.07 1.12 1.17 1.19 1.26 1.37 1.49 1.55 1.63 1.69 1.73 1.80 1.85 1.90 1.82 1.80 1.76 1.76 1.71 1.72 1.80 1.79 1.73 1.69 1.66 1.63 1.55 1.48 1.43 1.44 1.48 1.51 1.53 1.51 1.52 1.54 1.56 1.60 1.62 1.62 1.61 1.58 1.57 1.61 1.67 1.74 1.81 1.84 1.90 1.92 1.90 1.89 1.92 1.97 1.97 1.94 1.99 2.03 2.07 2.10 2.02 1.92 1.83
1.08 1.15 1.22 1.25 1.29 1.36 1.45 1.49 1.57 1.66 1.71 1.73 1.77 1.84 1.91 1.90 1.84 1.81 1.75 1.72 1.74 1.81 1.87 1.82 1.74 1.65 1.60 1.54 1.52 1.50 1.52 1.54 1.54 1.54 1.52 1.55 1.59 1.62 1.64 1.65 1.66 1.62 1.60 1.59 1.59 1.63 1.70 1.75 1.76 1.78 1.79 1.82 1.86 1.89 1.89 1.88 1.93 1.99 2.10 2.15 2.13 2.05 1.97
1.09 1.15 1.19 1.23 1.29 1.38 1.45 1.49 1.52 1.57 1.65 1.75 1.80 1.80 1.81 1.89 1.92 1.85 1.81 1.78 1.78 1.83 1.91 1.90 1.85 1.77 1.64 1.54 1.49 1.47 1.50 1.54 1.56 1.56 1.57 1.59 1.58 1.60 1.61 1.63 1.62 1.58 1.57 1.56 1.53 1.54 1.59 1.60 1.62 1.66 1.69 1.73 1.77 1.75 1.74 1.76 1.85 1.95 2.03 2.08 2.10 2.09 2.05
1.12 1.18 1.21 1.20 1.24 1.32 1.40 1.46 1.51 1.56 1.63 1.71 1.77 1.81 1.83 1.87 1.88 1.87 1.90 1.90 1.90 1.91 1.87 1.83 1.83 1.83 1.76 1.61 1.49 1.49 1.55 1.57 1.55 1.56 1.56 1.56 1.58 1.58 1.58 1.56 1.55 1.56 1.57 1.57 1.59 1.59 1.57 1.59 1.58 1.56 1.60 1.61 1.62 1.62 1.66 1.71 1.81 1.88 1.93 1.97 2.01 2.07 2.11
1.17 1.21 1.23 1.25 1.27 1.32 1.38 1.43 1.47 1.54 1.63 1.69 1.78 1.85 1.91 1.94 1.92 1.91 1.94 1.94 1.96 1.94 1.93 1.88 1.82 1.82 1.84 1.79 1.67 1.61 1.62 1.64 1.64 1.59 1.57 1.57 1.57 1.59 1.61 1.61 1.60 1.66 1.70 1.69 1.67 1.66 1.68 1.69 1.66 1.67 1.70 1.72 1.72 1.69 1.66 1.67 1.75 1.81 1.86 1.91 1.95 1.96 1.96
1.15 1.15 1.18 1.22 1.24 1.29 1.35 1.39 1.40 1.42 1.47 1.60 1.76 1.86 1.91 1.91 1.97 2.00 1.97 1.97 1.94 1.96 1.96 1.95 1.89 1.82 1.80 1.80 1.81 1.76 1.69 1.67 1.66 1.63 1.63 1.63 1.63 1.64 1.62 1.63 1.67 1.70 1.72 1.69 1.68 1.69 1.69 1.67 1.66 1.69 1.69 1.67 1.67 1.66 1.64 1.65 1.68 1.70 1.72 1.74 1.77 1.79 1.80
1.17 1.19 1.18 1.23 1.24 1.27 1.32 1.35 1.38 1.40 1.43 1.52 1.62 1.78 1.89 1.91 1.97 1.97 1.98 2.01 1.97 1.95 1.96 1.98 1.93 1.87 1.87 1.86 1.87 1.84 1.80 1.71 1.66 1.67 1.68 1.71 1.74 1.74 1.71 1.68 1.69 1.67 1.71 1.71 1.72 1.75 1.74 1.73 1.72 1.69 1.66 1.63 1.60 1.58 1.57 1.60 1.63 1.65 1.66 1.68 1.70 1.74 1.79
1.23 1.23 1.25 1.30 1.32 1.33 1.37 1.41 1.43 1.48 1.48 1.47 1.53 1.58 1.71 1.90 1.97 1.97 1.99 2.02 2.01 1.98 1.98 2.00 1.94 1.90 1.87 1.89 1.91 1.94 1.95 1.84 1.74 1.74 1.78 1.77 1.71 1.70 1.72 1.74 1.75 1.78 1.81 1.74 1.73 1.71 1.76 1.76 1.80 1.77 1.68 1.64 1.61 1.57 1.55 1.57 1.60 1.60 1.62 1.65 1.68 1.73 1.79
1.27 1.31 1.32 1.32 1.35 1.38 1.41 1.44 1.46 1.48 1.45 1.44 1.49 1.58 1.65 1.74 1.86 1.95 1.96 2.00 2.07 2.08 1.97 1.96 1.96 1.98 1.94 1.87 1.91 1.96 1.97 1.91 1.85 1.82 1.80 1.79 1.74 1.72 1.74 1.78 1.79 1.79 1.85 1.83 1.81 1.78 1.74 1.70 1.71 1.76 1.75 1.72 1.71 1.72 1.71 1.69 1.68 1.66 1.68 1.71 1.72 1.76 1.76
1.25 1.30 1.34 1.34 1.32 1.31 1.35 1.39 1.42 1.42 1.44 1.44 1.43 1.53 1.63 1.66 1.69 1.76 1.83 1.92 1.97 1.99 2.00 2.02 1.99 2.03 2.04 1.98 1.98 1.96 1.91 1.85 1.83 1.88 1.89 1.84 1.83 1.82 1.79 1.82 1.82 1.87 1.95 2.02 2.02 1.95 1.95 1.84 1.76 1.75 1.76 1.77 1.79 1.78 1.79 1.81 1.81 1.81 1.80 1.79 1.82 1.83 1.81
1.21 1.26 1.30 1.35 1.38 1.40 1.40 1.41 1.39 1.38 1.38 1.36 1.39 1.53 1.60 1.60 1.61 1.63 1.75 1.86 1.94 1.97 1.95 1.98 2.01 2.08 2.15 2.12 2.02 1.94 1.93 1.92 1.91 1.96 1.96 1.91 1.89 1.90 1.92 1.95 1.93 1.92 2.02 2.02 1.97 1.88 1.83 1.78 1.76 1.78 1.83 1.83 1.80 1.80 1.81 1.79 1.83 1.87 1.83 1.82 1.86 1.89 1.88
1.27 1.30 1.33 1.37 1.39 1.46 1.42 1.39 1.37 1.35 1.36 1.37 1.44 1.56 1.57 1.60 1.58 1.58 1.68 1.81 1.91 1.94 1.97 2.05 2.11 2.10 2.12 2.10 2.03 1.96 1.92 1.92 1.93 1.93 1.94 1.93 1.90 1.93 2.00 2.07 2.04 2.00 1.94 1.92 1.93 1.89 1.85 1.79 1.75 1.72 1.71 1.72 1.77 1.82 1.80 1.75 1.79 1.85 1.87 1.88 1.88 1.90 1.89
1.26 1.31 1.37 1.41 1.43 1.42 1.37 1.35 1.36 1.38 1.40 1.42 1.47 1.62 1.60 1.73 1.87 1.74 1.71 1.87 1.92 2.03 2.14 2.13 2.14 2.14 2.14 2.11 2.02 1.94 1.88 1.86 1.88 1.89 1.91 1.95 1.96 1.95 2.00 2.00 1.97 1.91 1.84 1.85 1.84 1.82 1.79 1.76 1.73 1.72 1.79 1.89 1.99 1.98 1.96 1.97 1.91 1.83 1.82 1.79 1.76 1.80 1.75
1.18 1.22 1.27 1.31 1.34 1.39 1.37 1.34 1.36 1.39 1.41 1.45 1.52 1.65 1.82 2.02 1.84 1.87 1.85 1.86 1.95 2.09 2.08 2.10 2.09 2.09 2.04 1.98 1.90 1.89 1.92 1.94 1.91 1.89 1.92 1.92 1.93 1.89 1.85 1.87 1.85 1.83 1.84 1.80 1.77 1.73 1.67 1.64 1.64 1.63 1.62 1.66 1.68 1.68 1.71 1.73 1.73 1.74 1.79 1.81 1.77 1.73 1.70
1.21 1.22 1.27 1.33 1.35 1.36 1.36 1.34 1.39 1.43 1.47 1.53 1.54 1.62 1.64 1.91 1.80 1.80 1.80 1.88 1.96 1.99 2.01 1.98 1.96 1.95 1.93 1.93 1.96 2.00 1.98 1.95 1.91 1.89 1.90 1.86 1.83 1.80 1.75 1.74 1.76 1.79 1.77 1.73 1.68 1.63 1.64 1.65 1.64 1.62 1.55 1.50 1.53 1.61 1.63 1.62 1.67 1.72 1.72 1.69 1.69 1.66 1.65
1.17 1.20 1.25 1.29 1.31 1.36 1.35 1.35 1.39 1.45 1.47 1.50 1.53 1.55 1.58 1.61 1.70 1.70 1.66 1.80 1.92 1.93 1.95 1.97 1.97 1.95 1.91 1.92 1.95 1.94 1.93 1.92 1.90 1.87 1.86 1.85 1.82 1.75 1.72 1.74 1.75 1.70 1.72 1.69 1.63 1.60 1.56 1.55 1.57 1.54 1.52 1.50 1.45 1.42 1.45 1.48 1.47 1.50 1.54 1.56 1.51 1.49 1.50
1.19 1.24 1.28 1.31 1.33 1.34 1.36 1.40 1.43 1.44 1.42 1.46 1.52 1.58 1.62 1.62 1.67 1.68 1.72 1.83 1.88 1.90 1.93 1.94 1.93 1.88 1.88 1.93 1.91 1.91 1.91 1.87 1.86 1.85 1.85 1.88 1.87 1.84 1.76 1.71 1.68 1.63 1.59 1.55 1.51 1.49 1.47 1.45 1.44 1.40 1.34 1.27 1.25 1.24 1.25 1.27 1.28 1.32 1.37 1.39 1.36 1.30 1.29
1.18 1.22 1.23 1.25 1.30 1.33 1.34 1.36 1.37 1.38 1.40 1.40 1.50 1.55 1.60 1.67 1.82 1.79 1.81 1.87 1.92 1.93 1.95 1.93 1.87 1.81 1.81 1.81 1.82 1.87 1.89 1.82 1.76 1.75 1.71 1.76 1.75 1.73 1.71 1.69 1.66 1.60 1.53 1.49 1.43 1.36 1.33 1.31 1.27 1.20 1.12 1.07 1.06 1.06 1.06 1.05 1.07 1.10 1.13 1.17 1.17 1.16 1.15
1.19 1.21 1.24 1.27 1.29 1.31 1.30 1.31 1.33 1.35 1.39 1.42 1.49 1.55 1.61 1.64 1.67 1.71 1.81 1.83 1.88 1.88 1.88 1.81 1.78 1.81 1.78 1.76 1.72 1.65 1.66 1.65 1.67 1.66 1.65 1.66 1.64 1.61 1.61 1.60 1.55 1.43 1.33 1.24 1.18 1.16 1.18 1.18 1.14 1.08 1.03 0.99 0.96 0.94 0.92 0.90 0.91 0.93 0.93 0.95 0.96 0.97 0.99
1.18 1.19 1.21 1.20 1.24 1.27 1.27 1.28 1.29 1.33 1.35 1.38 1.45 1.52 1.54 1.61 1.64 1.68 1.69 1.70 1.73 1.71 1.65 1.61 1.61 1.62 1.65 1.66 1.67 1.67 1.69 1.67 1.65 1.64 1.61 1.59 1.58 1.53 1.47 1.39 1.34 1.30 1.27 1.29 1.27 1.19 1.11 1.10 1.10 1.08 1.03 0.98 0.93 0.88 0.85 0.85 0.84 0.87 0.90 0.90 0.90 0.90 0.90
1.14 1.15 1.17 1.22 1.23 1.25 1.25 1.25 1.23 1.25 1.29 1.33 1.41 1.48 1.50 1.51 1.56 1.62 1.63 1.63 1.64 1.64 1.58 1.56 1.56 1.55 1.55 1.57 1.56 1.55 1.56 1.56 1.55 1.52 1.45 1.40 1.36 1.35 1.35 1.36 1.31 1.26 1.18 1.13 1.14 1.14 1.13 1.09 1.02 1.00 0.97 0.95 0.96 0.97 0.89 0.86 0.88 0.90 0.87 0.83 0.83 0.84 0.86
1.04 1.12 1.18 1.24 1.22 1.23 1.24 1.26 1.26 1.25 1.25 1.33 1.39 1.43 1.48 1.48 1.50 1.53 1.52 1.54 1.58 1.56 1.50 1.46 1.40 1.38 1.38 1.37 1.32 1.32 1.32 1.32 1.31 1.30 1.27 1.25 1.22 1.20 1.17 1.15 1.17 1.16 1.13 1.10 1.08 1.06 1.05 1.03 1.02 1.00 0.97 0.93 0.88 0.90 0.89 0.84 0.79 0.75 0.71 0.72 0.74 0.75 0.74
1.01 1.09 1.17 1.23 1.23 1.24 1.27 1.29 1.30 1.26 1.26 1.29 1.30 1.32 1.33 1.33 1.38 1.43 1.41 1.39 1.35 1.32 1.27 1.25 1.22 1.19 1.15 1.11 1.12 1.14 1.15 1.15 1.13 1.10 1.07 1.05 1.03 1.02 1.01 1.01 1.02 1.06 1.11 1.11 1.08 1.05 1.03 0.99 0.94 0.90 0.85 0.81 0.77 0.72 0.68 0.66 0.62 0.59 0.60 0.66 0.73 0.74 0.75

ECMWFFLT1_prec_pwat_135.txt.gz
Precipitable_Water
1.37 1.39 1.41 1.47 1.53 1.54 1.51 1.51 1.48 1.42 1.42 1.49 1.55 1.55 1.53 1.49 1.42 1.35 1.30 1.28 1.27 1.27 1.27 1.19 1.13 1.15 1.16 1.19 1.25 1.32 1.36 1.39 1.41 1.40 1.40 1.44 1.48 1.51 1.48 1.49 1.47 1.47 1.49 1.45 1.45 1.45 1.48 1.54 1.55 1.56 1.58 1.58 1.55 1.53 1.53 1.56 1.60 1.65 1.67 1.69 1.67 1.65 1.64
1.36 1.37 1.39 1.44 1.48 1.55 1.56 1.56 1.55 1.47 1.41 1.44 1.52 1.56 1.56 1.52 1.47 1.37 1.31 1.28 1.27 1.28 1.29 1.24 1.16 1.12 1.14 1.17 1.22 1.28 1.31 1.35 1.40 1.42 1.42 1.43 1.48 1.50 1.50 1.47 1.45 1.45 1.46 1.48 1.51 1.55 1.55 1.54 1.53 1.52 1.55 1.58 1.55 1.54 1.56 1.56 1.57 1.61 1.62 1.60 1.55 1.54 1.55
1.38 1.39 1.40 1.44 1.47 1.51 1.58 1.58 1.58 1.54 1.45 1.43 1.49 1.54 1.54 1.54 1.51 1.42 1.35 1.29 1.26 1.29 1.32 1.29 1.21 1.14 1.14 1.16 1.17 1.21 1.27 1.33 1.36 1.38 1.35 1.35 1.40 1.45 1.49 1.47 1.47 1.47 1.49 1.51 1.52 1.55 1.60 1.58 1.57 1.59 1.60 1.59 1.57 1.58 1.61 1.60 1.57 1.57 1.56 1.53 1.49 1.48 1.49
1.40 1.42 1.42 1.45 1.50 1.54 1.58 1.60 1.58 1.57 1.52 1.45 1.47 1.52 1.56 1.57 1.58 1.54 1.45 1.33 1.26 1.28 1.28 1.29 1.26 1.21 1.17 1.13 1.12 1.16 1.22 1.27 1.33 1.35 1.37 1.38 1.38 1.44 1.45 1.45 1.45 1.48 1.47 1.47 1.52 1.53 1.56 1.58 1.61 1.66 1.68 1.64 1.62 1.62 1.63 1.62 1.60 1.57 1.56 1.55 1.52 1.52 1.53
1.38 1.46 1.48 1.45 1.46 1.52 1.56 1.60 1.60 1.58 1.54 1.51 1.48 1.52 1.56 1.60 1.62 1.59 1.51 1.42 1.33 1.27 1.30 1.31 1.29 1.26 1.25 1.21 1.14 1.12 1.16 1.21 1.26 1.32 1.36 1.40 1.43 1.45 1.43 1.43 1.44 1.42 1.45 1.50 1.53 1.52 1.51 1.52 1.54 1.57 1.62 1.65 1.65 1.65 1.64 1.65 1.63 1.64 1.61 1.61 1.56 1.56 1.51
1.33 1.40 1.45 1.48 1.48 1.52 1.55 1.59 1.62 1.58 1.56 1.55 1.48 1.47 1.53 1.58 1.63 1.60 1.55 1.48 1.43 1.39 1.36 1.35 1.32 1.28 1.23 1.24 1.20 1.14 1.14 1.17 1.22 1.27 1.30 1.35 1.39 1.40 1.40 1.43 1.44 1.43 1.43 1.48 1.56 1.58 1.61 1.61 1.58 1.56 1.54 1.58 1.60 1.62 1.65 1.65 1.68 1.70 1.68 1.67 1.67 1.66 1.60
1.33 1.43 1.47 1.45 1.48 1.57 1.62 1.63 1.64 1.62 1.63 1.63 1.56 1.50 1.52 1.57 1.59 1.61 1.59 1.50 1.48 1.43 1.42 1.40 1.37 1.32 1.25 1.25 1.23 1.20 1.14 1.13 1.15 1.17 1.24 1.29 1.34 1.33 1.35 1.39 1.44 1.45 1.47 1.53 1.55 1.62 1.65 1.66 1.65 1.65 1.62 1.59 1.60 1.61 1.63 1.64 1.63 1.75 1.85 1.80 1.75 1.72 1.68
1.33 1.40 1.52 1.55 1.56 1.59 1.69 1.72 1.76 1.76 1.74 1.70 1.60 1.52 1.46 1.53 1.58 1.60 1.59 1.54 1.50 1.49 1.48 1.45 1.44 1.40 1.33 1.27 1.25 1.21 1.19 1.17 1.17 1.17 1.20 1.21 1.25 1.25 1.27 1.31 1.37 1.44 1.48 1.46 1.53 1.59 1.62 1.64 1.70 1.73 1.70 1.64 1.61 1.62 1.58 1.58 1.56 1.68 1.73 1.58 1.64 1.72 1.76
1.33 1.37 1.45 1.57 1.60 1.61 1.61 1.68 1.74 1.77 1.80 1.76 1.71 1.57 1.50 1.48 1.54 1.56 1.58 1.56 1.51 1.48 1.47 1.49 1.48 1.47 1.41 1.32 1.24 1.21 1.23 1.23 1.20 1.19 1.17 1.17 1.19 1.21 1.24 1.28 1.32 1.41 1.41 1.42 1.45 1.54 1.58 1.66 1.63 1.68 1.70 1.64 1.68 1.71 1.73 1.78 1.86 1.88 1.85 1.84 1.81 1.74 1.79
1.25 1.27 1.38 1.49 1.58 1.61 1.61 1.64 1.63 1.67 1.73 1.73 1.75 1.69 1.57 1.51 1.52 1.57 1.59 1.58 1.55 1.48 1.48 1.50 1.51 1.51 1.46 1.36 1.26 1.23 1.23 1.23 1.25 1.23 1.20 1.17 1.20 1.22 1.27 1.30 1.32 1.39 1.39 1.41 1.46 1.48 1.61 1.53 1.60 1.71 1.70 1.73 1.82 1.78 1.76 1.78 1.84 1.86 1.87 1.82 1.81 1.81 1.78
1.27 1.30 1.33 1.36 1.42 1.52 1.61 1.61 1.61 1.63 1.66 1.70 1.71 1.73 1.69 1.62 1.56 1.56 1.57 1.59 1.57 1.54 1.53 1.52 1.54 1.53 1.51 1.45 1.33 1.26 1.23 1.23 1.26 1.25 1.23 1.22 1.23 1.24 1.29 1.33 1.36 1.40 1.42 1.49 1.51 1.58 1.56 1.56 1.66 1.71 1.84 1.85 1.74 1.71 1.79 1.83 1.86 1.87 1.86 1.84 1.87 1.84 1.79
1.22 1.28 1.29 1.33 1.37 1.43 1.49 1.56 1.60 1.61 1.62 1.63 1.65 1.64 1.72 1.76 1.71 1.61 1.58 1.59 1.60 1.59 1.58 1.56 1.58 1.56 1.53 1.50 1.43 1.34 1.26 1.24 1.26 1.27 1.27 1.27 1.26 1.28 1.32 1.37 1.40 1.43 1.50 1.56 1.58 1.63 1.62 1.64 1.68 1.76 1.81 1.88 1.85 1.82 1.82 1.84 1.86 1.85 1.85 1.89 1.95 1.94 1.88
1.19 1.22 1.25 1.31 1.35 1.40 1.47 1.51 1.55 1.58 1.62 1.66 1.69 1.70 1.70 1.72 1.73 1.71 1.66 1.62 1.64 1.64 1.63 1.61 1.60 1.58 1.54 1.52 1.48 1.42 1.33 1.27 1.27 1.30 1.33 1.34 1.33 1.35 1.36 1.38 1.41 1.45 1.49 1.58 1.63 1.64 1.65 1.67 1.67 1.79 1.85 1.89 1.90 1.87 1.86 1.86 1.89 1.89 1.89 1.92 1.95 1.94 1.93
1.15 1.17 1.23 1.29 1.35 1.38 1.43 1.50 1.55 1.56 1.58 1.63 1.68 1.70 1.74 1.75 1.73 1.67 1.64 1.67 1.68 1.67 1.66 1.67 1.64 1.60 1.56 1.53 1.49 1.45 1.41 1.35 1.33 1.34 1.38 1.41 1.42 1.41 1.40 1.43 1.44 1.45 1.50 1.57 1.61 1.63 1.64 1.64 1.67 1.79 1.87 1.90 1.90 1.92 1.95 1.96 1.95 1.93 1.92 1.91 1.87 1.84 1.85
1.08 1.13 1.20 1.26 1.30 1.33 1.40 1.46 1.53 1.58 1.63 1.66 1.69 1.70 1.70 1.73 1.78 1.76 1.70 1.72 1.79 1.74 1.69 1.71 1.67 1.61 1.58 1.55 1.48 1.44 1.46 1.45 1.42 1.40 1.42 1.45 1.46 1.45 1.47 1.51 1.53 1.50 1.49 1.53 1.59 1.63 1.65 1.67 1.69 1.72 1.76 1.84 1.89 1.93 2.00 1.99 1.93 1.89 1.87 1.86 1.86 1.85 1.84
1.07 1.14 1.19 1.25 1.28 1.33 1.37 1.40 1.50 1.59 1.63 1.65 1.69 1.73 1.74 1.74 1.74 1.77 1.72 1.64 1.72 1.77 1.74 1.73 1.68 1.65 1.61 1.55 1.51 1.50 1.50 1.50 1.48 1.42 1.41 1.43 1.43 1.44 1.50 1.55 1.56 1.54 1.50 1.50 1.56 1.59 1.63 1.66 1.71 1.74 1.76 1.80 1.87 1.92 1.97 1.97 1.95 1.90 1.86 1.85 1.87 1.90 1.90
1.10 1.14 1.20 1.23 1.30 1.35 1.41 1.46 1.52 1.57 1.60 1.64 1.65 1.70 1.76 1.78 1.78 1.78 1.77 1.72 1.63 1.69 1.76 1.76 1.69 1.67 1.62 1.56 1.55 1.56 1.56 1.53 1.48 1.43 1.39 1.41 1.43 1.45 1.49 1.52 1.53 1.52 1.50 1.50 1.53 1.54 1.57 1.62 1.65 1.70 1.76 1.80 1.84 1.86 1.89 1.91 1.92 1.90 1.90 1.89 1.90 1.94 1.94
1.09 1.15 1.18 1.20 1.25 1.32 1.37 1.43 1.47 1.54 1.59 1.63 1.65 1.68 1.73 1.78 1.83 1.84 1.82 1.84 1.75 1.70 1.79 1.80 1.74 1.67 1.64 1.60 1.58 1.58 1.56 1.53 1.48 1.42 1.40 1.43 1.43 1.45 1.48 1.52 1.53 1.52 1.52 1.52 1.53 1.55 1.57 1.57 1.61 1.67 1.73 1.77 1.80 1.79 1.79 1.82 1.87 1.89 1.86 1.85 1.85 1.90 1.94
1.07 1.17 1.20 1.22 1.23 1.27 1.33 1.34 1.40 1.47 1.56 1.65 1.69 1.70 1.76 1.84 1.87 1.88 1.88 1.85 1.86 1.86 1.80 1.81 1.80 1.71 1.66 1.64 1.61 1.58 1.57 1.55 1.49 1.42 1.41 1.42 1.45 1.48 1.50 1.50 1.51 1.53 1.55 1.55 1.59 1.60 1.56 1.54 1.56 1.58 1.64 1.66 1.66 1.68 1.73 1.74 1.77 1.77 1.77 1.78 1.82 1.87 1.93
1.08 1.13 1.22 1.28 1.30 1.32 1.35 1.37 1.38 1.42 1.47 1.56 1.68 1.76 1.82 1.88 1.91 1.97 2.01 1.98 1.97 1.95 1.90 1.83 1.92 1.87 1.74 1.70 1.66 1.63 1.61 1.57 1.51 1.43 1.41 1.43 1.46 1.49 1.49 1.49 1.50 1.55 1.58 1.59 1.59 1.55 1.54 1.56 1.56 1.59 1.60 1.62 1.63 1.62 1.62 1.62 1.64 1.67 1.69 1.71 1.74 1.82 1.88
1.06 1.12 1.18 1.25 1.29 1.32 1.35 1.35 1.36 1.39 1.41 1.45 1.55 1.67 1.78 1.85 1.93 1.99 2.00 2.00 1.97 1.95 1.90 1.85 1.87 1.95 1.91 1.81 1.75 1.72 1.68 1.62 1.53 1.45 1.44 1.45 1.46 1.47 1.48 1.49 1.53 1.55 1.58 1.58 1.57 1.57 1.58 1.60 1.61 1.62 1.63 1.64 1.65 1.62 1.58 1.60 1.65 1.70 1.74 1.74 1.75 1.77 1.81
1.06 1.12 1.16 1.23 1.26 1.30 1.32 1.33 1.33 1.36 1.40 1.49 1.51 1.54 1.62 1.70 1.85 1.89 1.92 2.00 1.98 1.97 1.96 1.93 1.90 1.90 1.97 1.91 1.85 1.82 1.81 1.75 1.64 1.52 1.48 1.48 1.49 1.49 1.50 1.54 1.56 1.56 1.58 1.56 1.56 1.58 1.61 1.66 1.71 1.67 1.68 1.73 1.75 1.71 1.64 1.63 1.64 1.66 1.69 1.72 1.75 1.76 1.77
1.14 1.15 1.19 1.25 1.33 1.34 1.37 1.41 1.42 1.45 1.46 1.48 1.49 1.48 1.50 1.59 1.69 1.76 1.82 1.87 1.91 1.93 1.93 1.92 1.86 1.84 1.92 1.92 1.97 1.92 1.90 1.88 1.80 1.67 1.57 1.57 1.57 1.56 1.58 1.59 1.57 1.55 1.58 1.61 1.62 1.58 1.61 1.68 1.73 1.75 1.76 1.74 1.75 1.69 1.64 1.62 1.64 1.66 1.67 1.70 1.74 1.79 1.80
1.20 1.21 1.22 1.25 1.34 1.39 1.41 1.42 1.45 1.48 1.45 1.40 1.40 1.45 1.49 1.53 1.56 1.59 1.66 1.74 1.82 1.86 1.88 1.89 1.88 1.87 1.86 1.89 1.95 1.99 1.96 2.00 1.95 1.82 1.73 1.75 1.72 1.70 1.68 1.65 1.64 1.61 1.64 1.64 1.65 1.62 1.64 1.64 1.70 1.78 1.82 1.76 1.68 1.65 1.65 1.69 1.75 1.77 1.77 1.74 1.74 1.76 1.78
1.16 1.21 1.23 1.25 1.29 1.34 1.38 1.41 1.44 1.45 1.45 1.42 1.37 1.43 1.46 1.46 1.46 1.47 1.50 1.59 1.72 1.79 1.79 1.82 1.87 1.91 1.92 1.94 1.99 2.02 2.01 2.06 2.09 2.16 2.02 1.95 1.90 1.83 1.79 1.76 1.70 1.71 1.75 1.78 1.82 1.80 1.71 1.67 1.69 1.75 1.76 1.72 1.71 1.72 1.69 1.68 1.74 1.80 1.83 1.82 1.81 1.83 1.84
1.09 1.15 1.20 1.25 1.31 1.37 1.40 1.42 1.40 1.38 1.38 1.37 1.36 1.40 1.41 1.44 1.44 1.43 1.43 1.49 1.59 1.66 1.73 1.79 1.85 1.93 1.98 2.04 2.06 2.05 2.05 2.04 2.03 2.05 2.12 2.08 2.10 2.11 1.96 2.00 1.99 1.81 1.75 1.79 1.80 1.80 1.78 1.73 1.71 1.72 1.72 1.76 1.78 1.79 1.76 1.75 1.71 1.70 1.73 1.80 1.85 1.88 1.96
1.14 1.18 1.19 1.23 1.25 1.32 1.33 1.37 1.35 1.32 1.33 1.35 1.35 1.37 1.42 1.46 1.47 1.45 1.47 1.49 1.51 1.53 1.64 1.82 1.93 1.95 1.99 2.03 2.03 2.03 2.14 2.15 2.12 1.99 1.97 2.08 2.09 2.15 2.07 2.01 1.97 1.90 1.82 1.80 1.80 1.78 1.75 1.74 1.75 1.72 1.70 1.72 1.78 1.81 1.80 1.79 1.73 1.78 1.84 1.91 1.94 1.94 1.91
1.13 1.17 1.23 1.27 1.28 1.27 1.28 1.30 1.31 1.31 1.33 1.36 1.36 1.39 1.42 1.48 1.50 1.52 1.53 1.52 1.48 1.54 1.69 1.78 1.88 1.95 1.98 2.02 2.04 2.04 2.05 2.15 2.15 2.15 2.02 2.03 2.11 2.09 1.99 1.98 1.93 1.95 1.93 1.87 1.81 1.76 1.74 1.74 1.74 1.73 1.73 1.73 1.70 1.69 1.69 1.71 1.71 1.72 1.79 1.86 1.89 1.90 1.92
1.11 1.08 1.12 1.18 1.22 1.27 1.26 1.24 1.25 1.26 1.29 1.33 1.36 1.40 1.43 1.48 1.50 1.50 1.46 1.46 1.58 1.67 1.72 1.77 1.85 1.91 1.95 1.96 2.00 2.03 2.08 2.12 2.15 2.13 2.11 2.04 2.11 2.07 1.99 1.95 1.94 1.93 1.86 1.82 1.81 1.78 1.74 1.71 1.70 1.67 1.61 1.61 1.64 1.68 1.70 1.70 1.69 1.66 1.64 1.68 1.71 1.71 1.71
1.14 1.12 1.15 1.21 1.25 1.26 1.26 1.23 1.25 1.26 1.30 1.32 1.36 1.43 1.48 1.49 1.51 1.52 1.54 1.55 1.70 1.78 1.80 1.80 1.83 1.90 1.91 1.96 2.01 2.05 2.08 2.09 2.11 2.13 2.07 2.05 2.06 2.06 1.99 1.98 1.93 1.88 1.86 1.86 1.81 1.74 1.67 1.65 1.64 1.60 1.57 1.54 1.53 1.55 1.57 1.59 1.58 1.58 1.58 1.57 1.58 1.61 1.63
1.11 1.13 1.15 1.17 1.21 1.26 1.26 1.24 1.23 1.26 1.28 1.31 1.36 1.44 1.53 1.57 1.54 1.60 1.59 1.66 1.76 1.79 1.82 1.90 1.91 1.88 1.88 1.90 1.96 2.01 2.03 2.05 2.06 2.06 2.04 2.03 2.02 1.91 1.85 1.84 1.85 1.81 1.80 1.76 1.69 1.64 1.59 1.59 1.59 1.56 1.52 1.49 1.45 1.45 1.46 1.50 1.55 1.59 1.62 1.59 1.55 1.55 1.57
1.10 1.16 1.17 1.18 1.20 1.24 1.25 1.25 1.26 1.26 1.26 1.31 1.38 1.43 1.51 1.61 1.64 1.59 1.68 1.82 1.85 1.86 1.88 1.88 1.86 1.89 1.90 1.92 1.96 1.99 2.02 1.94 1.97 1.97 1.93 1.88 1.88 1.87 1.87 1.81 1.75 1.70 1.68 1.67 1.65 1.62 1.58 1.55 1.53 1.47 1.42 1.37 1.34 1.33 1.34 1.34 1.34 1.33 1.35 1.37 1.40 1.40 1.41
1.02 1.10 1.15 1.15 1.19 1.22 1.22 1.23 1.23 1.24 1.27 1.28 1.36 1.42 1.48 1.59 1.71 1.75 1.82 1.86 1.89 1.90 1.89 1.90 1.88 1.86 1.90 1.90 1.90 1.94 1.95 1.87 1.82 1.82 1.80 1.78 1.79 1.82 1.79 1.74 1.72 1.69 1.67 1.64 1.60 1.55 1.50 1.43 1.38 1.35 1.30 1.23 1.20 1.19 1.19 1.19 1.20 1.19 1.19 1.20 1.21 1.21 1.21
0.93 1.02 1.13 1.19 1.21 1.23 1.22 1.23 1.21 1.23 1.26 1.29 1.36 1.43 1.49 1.59 1.66 1.71 1.83 1.85 1.87 1.88 1.85 1.78 1.77 1.74 1.75 1.76 1.78 1.79 1.80 1.79 1.77 1.75 1.73 1.76 1.77 1.74 1.70 1.70 1.68 1.62 1.57 1.55 1.51 1.44 1.39 1.34 1.27 1.20 1.14 1.10 1.08 1.05 1.02 1.00 0.98 0.98 0.98 1.00 1.01 1.02 1.04
0.88 0.94 1.05 1.13 1.19 1.22 1.21 1.21 1.21 1.25 1.28 1.32 1.40 1.45 1.52 1.59 1.64 1.69 1.75 1.80 1.85 1.85 1.83 1.84 1.85 1.84 1.79 1.77 1.78 1.78 1.83 1.80 1.77 1.75 1.72 1.68 1.63 1.61 1.61 1.58 1.55 1.52 1.51 1.53 1.50 1.41 1.29 1.18 1.12 1.09 1.06 1.01 0.97 0.92 0.91 0.92 0.91 0.96 1.02 1.05 1.06 1.05 1.04
0.85 0.88 0.96 1.09 1.17 1.20 1.22 1.24 1.26 1.28 1.30 1.33 1.40 1.45 1.49 1.54 1.59 1.65 1.70 1.73 1.72 1.72 1.64 1.61 1.64 1.66 1.69 1.75 1.78 1.76 1.74 1.72 1.72 1.68 1.64 1.61 1.56 1.52 1.51 1.54 1.52 1.49 1.42 1.37 1.37 1.29 1.21 1.12 1.07 1.05 1.02 0.98 0.99 0.98 0.92 0.92 0.99 1.06 1.06 1.06 1.05 1.03 1.02
0.85 0.86 0.91 0.98 1.05 1.14 1.18 1.22 1.26 1.29 1.30 1.34 1.39 1.41 1.45 1.49 1.53 1.55 1.60 1.62 1.61 1.59 1.57 1.57 1.55 1.57 1.59 1.64 1.65 1.65 1.63 1.62 1.60 1.60 1.57 1.54 1.47 1.40 1.34 1.31 1.32 1.33 1.31 1.28 1.21 1.14 1.11 1.10 1.10 1.09 1.06 1.01 0.97 0.99 1.01 1.01 1.01 0.98 0.96 0.93 0.90 0.88 0.85
0.88 0.90 0.92 0.95 0.99 1.08 1.16 1.20 1.22 1.24 1.26 1.30 1.32 1.36 1.41 1.45 1.49 1.54 1.59 1.62 1.63 1.63 1.60 1.58 1.54 1.51 1.52 1.56 1.59 1.61 1.57 1.54 1.51 1.48 1.42 1.36 1.30 1.23 1.18 1.15 1.12 1.12 1.15 1.14 1.11 1.10 1.09 1.08 1.08 1.07 1.06 1.05 1.01 0.95 0.92 0.91 0.86 0.82 0.81 0.80 0.80 0.79 0.80

ECMWFFLT1_prec_pwat_138.txt.gz
Precipitable_Water
1.36 1.38 1.37 1.40 1.47 1.52 1.53 1.55 1.55 1.51 1.49 1.46 1.48 1.55 1.56 1.49 1.44 1.42 1.36 1.31 1.26 1.25 1.29 1.25 1.17 1.15 1.11 1.12 1.17 1.26 1.35 1.42 1.49 1.50 1.50 1.51 1.54 1.55 1.54 1.54 1.51 1.50 1.50 1.47 1.50 1.52 1.56 1.60 1.58 1.58 1.60 1.60 1.59 1.58 1.58 1.57 1.54 1.53 1.55 1.61 1.63 1.63 1.65
1.28 1.34 1.37 1.38 1.38 1.46 1.54 1.58 1.59 1.57 1.54 1.51 1.49 1.52 1.57 1.54 1.49 1.44 1.39 1.34 1.28 1.24 1.27 1.27 1.21 1.14 1.11 1.10 1.14 1.20 1.28 1.37 1.44 1.48 1.48 1.49 1.53 1.55 1.57 1.56 1.54 1.52 1.53 1.53 1.54 1.56 1.58 1.59 1.58 1.56 1.56 1.58 1.57 1.58 1.57 1.55 1.53 1.52 1.53 1.59 1.62 1.63 1.63
1.30 1.34 1.38 1.41 1.40 1.41 1.49 1.58 1.61 1.60 1.58 1.55 1.52 1.51 1.52 1.56 1.55 1.49 1.45 1.39 1.31 1.27 1.28 1.28 1.25 1.18 1.14 1.10 1.10 1.14 1.24 1.34 1.37 1.40 1.39 1.40 1.44 1.50 1.56 1.56 1.54 1.51 1.52 1.53 1.53 1.52 1.56 1.55 1.57 1.56 1.55 1.53 1.55 1.57 1.55 1.54 1.56 1.57 1.57 1.59 1.59 1.55 1.51
1.30 1.35 1.39 1.45 1.48 1.49 1.51 1.56 1.61 1.62 1.62 1.61 1.54 1.50 1.51 1.56 1.61 1.57 1.52 1.47 1.39 1.30 1.23 1.25 1.27 1.22 1.16 1.08 1.05 1.10 1.18 1.27 1.33 1.36 1.39 1.41 1.43 1.50 1.52 1.53 1.53 1.53 1.50 1.49 1.53 1.54 1.56 1.58 1.58 1.57 1.56 1.52 1.54 1.55 1.53 1.52 1.56 1.55 1.53 1.50 1.46 1.44 1.42
1.29 1.38 1.42 1.44 1.47 1.50 1.53 1.56 1.61 1.66 1.66 1.68 1.63 1.57 1.55 1.59 1.64 1.63 1.58 1.54 1.49 1.38 1.30 1.25 1.27 1.27 1.24 1.17 1.08 1.09 1.13 1.20 1.27 1.34 1.39 1.43 1.46 1.49 1.48 1.47 1.49 1.48 1.49 1.52 1.54 1.53 1.53 1.55 1.55 1.56 1.56 1.57 1.57 1.56 1.53 1.54 1.53 1.54 1.52 1.51 1.45 1.45 1.44
1.20 1.28 1.38 1.42 1.45 1.47 1.50 1.58 1.65 1.70 1.73 1.75 1.73 1.69 1.66 1.63 1.66 1.65 1.63 1.58 1.55 1.52 1.44 1.36 1.29 1.28 1.24 1.22 1.16 1.09 1.11 1.17 1.24 1.30 1.35 1.40 1.42 1.43 1.44 1.45 1.46 1.47 1.47 1.48 1.53 1.52 1.52 1.51 1.50 1.52 1.53 1.56 1.56 1.55 1.55 1.54 1.57 1.59 1.58 1.56 1.53 1.51 1.49
1.18 1.27 1.32 1.37 1.45 1.51 1.56 1.59 1.62 1.63 1.67 1.73 1.74 1.73 1.69 1.65 1.65 1.67 1.68 1.62 1.58 1.52 1.46 1.36 1.32 1.29 1.26 1.27 1.22 1.16 1.09 1.08 1.14 1.20 1.29 1.34 1.40 1.41 1.44 1.45 1.46 1.47 1.48 1.50 1.47 1.51 1.49 1.48 1.48 1.50 1.51 1.49 1.47 1.47 1.49 1.52 1.56 1.60 1.60 1.58 1.59 1.67 1.68
1.17 1.22 1.31 1.37 1.45 1.53 1.58 1.61 1.64 1.68 1.73 1.77 1.73 1.66 1.65 1.65 1.63 1.66 1.67 1.65 1.62 1.57 1.51 1.43 1.37 1.32 1.28 1.28 1.27 1.21 1.14 1.10 1.12 1.15 1.21 1.25 1.31 1.36 1.40 1.44 1.46 1.50 1.51 1.45 1.47 1.51 1.52 1.53 1.54 1.53 1.52 1.50 1.51 1.52 1.51 1.51 1.52 1.54 1.54 1.55 1.60 1.63 1.62
1.18 1.22 1.27 1.36 1.44 1.51 1.56 1.61 1.65 1.69 1.72 1.77 1.76 1.70 1.70 1.67 1.59 1.58 1.64 1.69 1.66 1.60 1.54 1.51 1.46 1.43 1.38 1.31 1.28 1.25 1.22 1.18 1.15 1.14 1.14 1.15 1.19 1.23 1.31 1.37 1.42 1.48 1.45 1.43 1.45 1.50 1.53 1.56 1.58 1.58 1.58 1.58 1.60 1.61 1.62 1.61 1.59 1.62 1.64 1.69 1.72 1.71 1.74
1.13 1.15 1.20 1.28 1.39 1.49 1.58 1.62 1.66 1.66 1.68 1.71 1.73 1.71 1.70 1.69 1.63 1.59 1.61 1.67 1.71 1.64 1.61 1.57 1.54 1.52 1.49 1.42 1.35 1.33 1.30 1.24 1.21 1.17 1.14 1.10 1.11 1.11 1.18 1.27 1.31 1.36 1.36 1.39 1.43 1.42 1.47 1.52 1.56 1.57 1.58 1.59 1.60 1.63 1.64 1.64 1.67 1.73 1.80 1.82 1.83 1.82 1.80
1.12 1.16 1.20 1.25 1.29 1.36 1.48 1.58 1.61 1.63 1.66 1.67 1.70 1.73 1.72 1.70 1.66 1.59 1.57 1.62 1.65 1.66 1.68 1.65 1.61 1.56 1.53 1.51 1.44 1.39 1.35 1.32 1.28 1.21 1.17 1.12 1.11 1.09 1.12 1.17 1.22 1.26 1.27 1.30 1.32 1.36 1.39 1.43 1.49 1.49 1.53 1.56 1.59 1.66 1.71 1.73 1.73 1.72 1.77 1.83 1.86 1.85 1.80
1.10 1.13 1.14 1.18 1.25 1.32 1.36 1.48 1.60 1.64 1.68 1.71 1.69 1.70 1.73 1.71 1.65 1.62 1.59 1.57 1.62 1.64 1.66 1.69 1.67 1.60 1.56 1.55 1.50 1.44 1.37 1.34 1.32 1.27 1.22 1.19 1.17 1.14 1.13 1.15 1.18 1.22 1.26 1.29 1.28 1.32 1.35 1.37 1.43 1.47 1.51 1.58 1.67 1.79 1.85 1.83 1.77 1.76 1.79 1.83 1.87 1.89 1.86
1.06 1.09 1.12 1.13 1.16 1.26 1.36 1.42 1.50 1.60 1.67 1.71 1.73 1.75 1.72 1.69 1.70 1.68 1.64 1.58 1.59 1.63 1.66 1.66 1.66 1.63 1.58 1.56 1.53 1.50 1.44 1.39 1.34 1.31 1.27 1.25 1.23 1.23 1.21 1.19 1.19 1.21 1.22 1.29 1.30 1.31 1.33 1.40 1.47 1.55 1.57 1.62 1.71 1.82 1.91 1.93 1.90 1.86 1.84 1.84 1.86 1.85 1.84
1.01 1.06 1.12 1.15 1.15 1.18 1.24 1.35 1.46 1.54 1.62 1.68 1.72 1.74 1.75 1.78 1.78 1.71 1.66 1.61 1.60 1.61 1.64 1.67 1.66 1.63 1.60 1.58 1.54 1.52 1.50 1.48 1.45 1.41 1.36 1.31 1.29 1.28 1.27 1.26 1.25 1.24 1.26 1.30 1.31 1.34 1.38 1.45 1.53 1.60 1.66 1.69 1.75 1.85 1.93 1.96 1.94 1.93 1.91 1.90 1.90 1.88 1.87
0.94 1.00 1.07 1.10 1.14 1.19 1.23 1.28 1.39 1.48 1.57 1.66 1.71 1.72 1.73 1.73 1.77 1.80 1.75 1.69 1.66 1.65 1.62 1.66 1.66 1.64 1.61 1.58 1.55 1.53 1.54 1.54 1.53 1.52 1.48 1.43 1.35 1.31 1.30 1.31 1.31 1.30 1.29 1.30 1.32 1.38 1.45 1.54 1.60 1.62 1.65 1.70 1.77 1.87 1.94 1.94 1.93 1.97 2.00 1.98 1.95 1.92 1.88
0.91 0.97 1.03 1.09 1.14 1.19 1.25 1.29 1.34 1.41 1.48 1.55 1.62 1.68 1.71 1.72 1.73 1.77 1.75 1.71 1.71 1.70 1.69 1.67 1.63 1.62 1.62 1.59 1.56 1.57 1.57 1.57 1.57 1.56 1.55 1.52 1.44 1.35 1.33 1.33 1.34 1.34 1.32 1.31 1.33 1.37 1.45 1.53 1.60 1.62 1.63 1.65 1.73 1.81 1.86 1.89 1.93 1.97 2.02 2.05 1.99 1.91 1.87
0.91 0.96 1.03 1.10 1.15 1.18 1.23 1.28 1.32 1.38 1.41 1.46 1.53 1.60 1.67 1.71 1.74 1.79 1.79 1.77 1.77 1.76 1.77 1.74 1.64 1.61 1.61 1.59 1.61 1.61 1.61 1.59 1.57 1.58 1.56 1.56 1.54 1.48 1.39 1.36 1.38 1.40 1.38 1.37 1.39 1.42 1.45 1.48 1.51 1.58 1.63 1.67 1.71 1.76 1.81 1.87 1.93 1.97 2.00 2.01 2.00 1.97 1.90
0.90 0.97 1.01 1.07 1.13 1.17 1.19 1.22 1.25 1.29 1.34 1.43 1.52 1.59 1.64 1.68 1.72 1.76 1.76 1.81 1.80 1.82 1.85 1.79 1.70 1.63 1.61 1.62 1.63 1.63 1.61 1.59 1.59 1.58 1.57 1.58 1.56 1.55 1.51 1.44 1.43 1.43 1.42 1.44 1.47 1.51 1.53 1.49 1.50 1.57 1.63 1.68 1.73 1.75 1.79 1.84 1.89 1.93 1.96 1.98 1.98 1.98 1.96
0.87 0.95 1.00 1.04 1.09 1.17 1.20 1.20 1.24 1.27 1.27 1.31 1.39 1.50 1.64 1.72 1.71 1.70 1.76 1.78 1.83 1.88 1.86 1.81 1.75 1.68 1.64 1.64 1.63 1.63 1.63 1.61 1.59 1.58 1.58 1.58 1.58 1.60 1.59 1.52 1.46 1.45 1.44 1.46 1.54 1.59 1.55 1.53 1.56 1.58 1.63 1.66 1.67 1.69 1.75 1.78 1.83 1.85 1.86 1.87 1.88 1.88 1.88
0.88 0.94 1.00 1.04 1.07 1.12 1.19 1.24 1.28 1.30 1.32 1.31 1.34 1.42 1.55 1.68 1.72 1.75 1.79 1.81 1.84 1.84 1.83 1.82 1.79 1.75 1.71 1.70 1.66 1.64 1.64 1.62 1.59 1.58 1.59 1.60 1.61 1.62 1.59 1.52 1.46 1.48 1.51 1.56 1.62 1.59 1.58 1.59 1.58 1.59 1.59 1.61 1.63 1.65 1.67 1.69 1.74 1.77 1.77 1.77 1.78 1.78 1.76
0.88 0.93 0.98 1.01 1.03 1.09 1.16 1.22 1.26 1.30 1.31 1.32 1.34 1.37 1.44 1.52 1.63 1.72 1.79 1.82 1.81 1.84 1.84 1.85 1.82 1.79 1.76 1.73 1.71 1.68 1.66 1.64 1.62 1.61 1.61 1.63 1.62 1.61 1.56 1.49 1.50 1.53 1.58 1.63 1.63 1.61 1.58 1.57 1.56 1.59 1.60 1.61 1.60 1.57 1.56 1.58 1.61 1.63 1.65 1.66 1.69 1.70 1.71
0.89 0.93 0.95 1.02 1.05 1.09 1.14 1.20 1.24 1.27 1.30 1.37 1.37 1.36 1.39 1.43 1.54 1.58 1.64 1.80 1.84 1.86 1.88 1.89 1.87 1.83 1.82 1.75 1.72 1.71 1.70 1.69 1.66 1.67 1.68 1.70 1.72 1.66 1.56 1.50 1.52 1.54 1.61 1.63 1.63 1.63 1.62 1.61 1.60 1.59 1.59 1.59 1.57 1.53 1.50 1.54 1.56 1.59 1.62 1.66 1.70 1.73 1.72
0.95 0.97 1.01 1.07 1.12 1.14 1.20 1.24 1.27 1.32 1.36 1.38 1.40 1.38 1.37 1.41 1.45 1.47 1.51 1.58 1.71 1.84 1.90 1.91 1.87 1.88 1.87 1.80 1.78 1.78 1.80 1.77 1.71 1.67 1.61 1.60 1.69 1.74 1.68 1.58 1.55 1.58 1.62 1.57 1.56 1.56 1.55 1.54 1.56 1.58 1.56 1.55 1.54 1.54 1.56 1.61 1.65 1.68 1.72 1.75 1.79 1.80 1.78
1.01 1.04 1.06 1.09 1.15 1.20 1.23 1.26 1.30 1.35 1.36 1.36 1.38 1.40 1.40 1.39 1.39 1.38 1.37 1.41 1.51 1.62 1.77 1.86 1.87 1.92 1.92 1.89 1.86 1.86 1.87 1.83 1.80 1.78 1.73 1.68 1.66 1.74 1.79 1.71 1.67 1.63 1.61 1.52 1.49 1.48 1.49 1.56 1.56 1.55 1.53 1.51 1.54 1.63 1.68 1.69 1.70 1.72 1.76 1.81 1.84 1.88 1.87
1.00 1.04 1.07 1.08 1.10 1.14 1.20 1.25 1.28 1.31 1.35 1.35 1.32 1.37 1.40 1.38 1.36 1.32 1.28 1.32 1.37 1.43 1.50 1.64 1.79 1.88 1.91 1.92 1.97 2.00 1.97 1.92 1.88 1.87 1.86 1.85 1.85 1.83 1.84 1.83 1.73 1.65 1.57 1.53 1.53 1.50 1.52 1.55 1.54 1.62 1.66 1.73 1.79 1.76 1.69 1.68 1.72 1.76 1.79 1.83 1.84 1.85 1.85
0.96 1.01 1.05 1.08 1.12 1.20 1.25 1.27 1.24 1.24 1.27 1.28 1.31 1.38 1.39 1.39 1.36 1.32 1.30 1.31 1.35 1.34 1.37 1.44 1.58 1.78 1.92 1.96 1.99 1.99 1.98 1.96 1.94 1.94 1.94 1.93 1.94 1.94 1.94 1.97 1.89 1.84 1.80 1.71 1.65 1.57 1.61 1.55 1.50 1.48 1.66 1.79 1.82 1.74 1.70 1.65 1.65 1.68 1.69 1.71 1.77 1.83 1.85
0.99 1.02 1.02 1.06 1.10 1.19 1.21 1.23 1.22 1.20 1.23 1.28 1.32 1.35 1.37 1.36 1.32 1.30 1.33 1.37 1.39 1.38 1.44 1.50 1.57 1.64 1.73 1.88 1.97 2.00 2.02 2.05 2.03 1.99 1.99 1.99 1.94 1.96 1.99 2.02 1.96 1.89 1.81 1.80 1.77 1.73 1.65 1.68 1.68 1.59 1.59 1.66 1.69 1.69 1.69 1.68 1.64 1.67 1.73 1.76 1.79 1.80 1.81
0.97 1.01 1.08 1.12 1.14 1.15 1.17 1.19 1.20 1.20 1.21 1.26 1.32 1.35 1.36 1.35 1.29 1.29 1.32 1.38 1.43 1.51 1.61 1.65 1.63 1.62 1.66 1.72 1.83 1.95 2.01 2.03 2.06 2.05 2.02 2.02 2.04 2.00 1.93 1.93 1.98 1.98 1.90 1.89 1.89 1.86 1.79 1.76 1.76 1.68 1.60 1.60 1.63 1.67 1.69 1.70 1.69 1.70 1.73 1.75 1.77 1.79 1.80
0.91 0.93 0.97 1.04 1.09 1.15 1.17 1.16 1.17 1.18 1.19 1.24 1.28 1.32 1.33 1.32 1.27 1.28 1.34 1.37 1.48 1.56 1.58 1.60 1.67 1.69 1.65 1.67 1.72 1.83 1.94 2.03 2.06 2.06 2.08 2.06 2.06 2.05 1.98 1.94 1.94 1.97 1.96 1.89 1.86 1.87 1.82 1.78 1.75 1.71 1.69 1.66 1.66 1.68 1.69 1.67 1.64 1.63 1.65 1.69 1.71 1.73 1.75
0.88 0.92 0.97 1.05 1.11 1.15 1.18 1.17 1.18 1.19 1.21 1.25 1.28 1.31 1.33 1.31 1.26 1.30 1.34 1.40 1.59 1.60 1.59 1.60 1.68 1.73 1.70 1.67 1.70 1.76 1.85 1.95 2.04 2.13 2.15 2.09 2.05 2.02 1.99 1.99 1.98 1.96 1.92 1.88 1.87 1.80 1.75 1.76 1.77 1.77 1.70 1.65 1.63 1.62 1.62 1.63 1.63 1.61 1.61 1.63 1.65 1.67 1.67
0.81 0.85 0.91 0.98 1.07 1.15 1.17 1.16 1.15 1.17 1.20 1.26 1.29 1.31 1.32 1.33 1.29 1.31 1.34 1.47 1.61 1.64 1.61 1.60 1.64 1.71 1.71 1.71 1.71 1.75 1.83 1.89 1.94 2.00 2.03 2.04 2.04 2.03 2.01 1.98 1.96 1.87 1.87 1.90 1.85 1.80 1.79 1.80 1.78 1.69 1.62 1.59 1.57 1.58 1.59 1.60 1.58 1.58 1.60 1.60 1.63 1.63 1.64
0.80 0.83 0.86 0.94 1.05 1.13 1.16 1.17 1.17 1.17 1.19 1.25 1.28 1.29 1.32 1.34 1.37 1.35 1.44 1.58 1.65 1.69 1.71 1.70 1.69 1.67 1.70 1.73 1.73 1.78 1.86 1.85 1.87 2.00 2.08 2.02 2.06 2.04 2.05 2.02 1.95 1.90 1.86 1.83 1.81 1.78 1.73 1.70 1.67 1.63 1.58 1.55 1.56 1.53 1.52 1.52 1.52 1.52 1.53 1.55 1.55 1.55 1.57
0.77 0.78 0.80 0.84 0.97 1.09 1.13 1.15 1.14 1.14 1.17 1.19 1.25 1.28 1.32 1.36 1.42 1.47 1.53 1.58 1.68 1.75 1.76 1.71 1.74 1.75 1.79 1.80 1.81 1.82 1.84 1.83 1.78 1.82 1.88 1.93 1.93 1.96 1.97 1.93 1.94 1.92 1.87 1.79 1.73 1.70 1.68 1.63 1.57 1.54 1.50 1.48 1.43 1.40 1.37 1.34 1.32 1.32 1.33 1.34 1.32 1.31 1.33
0.74 0.77 0.82 0.85 0.91 1.03 1.11 1.15 1.14 1.15 1.17 1.18 1.23 1.30 1.33 1.37 1.42 1.49 1.56 1.63 1.69 1.75 1.78 1.76 1.71 1.71 1.75 1.84 1.86 1.88 1.87 1.85 1.86 1.87 1.87 1.94 2.03 1.99 1.91 1.89 1.87 1.81 1.74 1.70 1.65 1.58 1.53 1.51 1.49 1.46 1.41 1.37 1.34 1.31 1.27 1.22 1.19 1.16 1.14 1.13 1.11 1.07 1.05
0.75 0.77 0.80 0.81 0.85 0.93 1.04 1.14 1.17 1.18 1.19 1.21 1.27 1.31 1.34 1.39 1.45 1.52 1.58 1.61 1.65 1.67 1.68 1.71 1.76 1.71 1.73 1.79 1.77 1.86 1.87 1.87 1.89 1.90 1.89 1.86 1.85 1.84 1.82 1.75 1.72 1.70 1.67 1.67 1.63 1.56 1.49 1.43 1.40 1.38 1.35 1.29 1.21 1.13 1.07 1.06 1.03 1.05 1.10 1.12 1.13 1.15 1.15
0.78 0.78 0.79 0.83 0.86 0.89 0.99 1.13 1.19 1.20 1.22 1.24 1.29 1.33 1.36 1.39 1.41 1.45 1.49 1.53 1.56 1.59 1.60 1.64 1.68 1.75 1.76 1.73 1.79 1.84 1.86 1.86 1.84 1.88 1.81 1.71 1.68 1.65 1.63 1.66 1.64 1.62 1.56 1.49 1.49 1.47 1.44 1.39 1.31 1.26 1.20 1.13 1.12 1.13 1.08 1.07 1.10 1.15 1.16 1.17 1.18 1.18 1.17
0.80 0.79 0.80 0.82 0.84 0.88 0.94 1.06 1.17 1.21 1.23 1.26 1.32 1.33 1.34 1.36 1.39 1.43 1.48 1.52 1.56 1.58 1.57 1.58 1.59 1.60 1.64 1.68 1.72 1.74 1.73 1.72 1.71 1.72 1.64 1.62 1.59 1.57 1.54 1.52 1.50 1.48 1.45 1.42 1.38 1.34 1.30 1.25 1.21 1.19 1.19 1.18 1.16 1.20 1.21 1.21 1.21 1.21 1.19 1.16 1.12 1.08 1.06
0.87 0.86 0.84 0.84 0.86 0.88 0.91 0.98 1.11 1.20 1.23 1.29 1.31 1.32 1.33 1.35 1.40 1.45 1.50 1.56 1.58 1.59 1.58 1.58 1.55 1.53 1.57 1.61 1.62 1.61 1.58 1.57 1.59 1.58 1.57 1.56 1.56 1.52 1.44 1.37 1.31 1.30 1.31 1.29 1.26 1.25 1.23 1.22 1.21 1.21 1.23 1.25 1.24 1.22 1.20 1.21 1.18 1.14 1.07 0.99 0.93 0.89 0.90

ECMWFFLT1_prec_pwat_141.txt.gz
Precipitable_Water
1.27 1.32 1.40 1.45 1.45 1.49 1.54 1.58 1.60 1.57 1.55 1.53 1.56 1.58 1.60 1.60 1.55 1.49 1.43 1.41 1.35 1.31 1.32 1.30 1.23 1.18 1.14 1.17 1.20 1.26 1.33 1.38 1.46 1.51 1.52 1.56 1.57 1.54 1.51 1.53 1.51 1.52 1.53 1.48 1.48 1.48 1.53 1.56 1.54 1.56 1.59 1.60 1.59 1.60 1.59 1.59 1.58 1.57 1.55 1.56 1.56 1.58 1.58
1.18 1.27 1.35 1.43 1.45 1.47 1.52 1.58 1.63 1.64 1.61 1.56 1.55 1.58 1.59 1.60 1.60 1.53 1.47 1.46 1.41 1.35 1.32 1.32 1.30 1.22 1.16 1.16 1.20 1.24 1.26 1.33 1.41 1.48 1.52 1.56 1.61 1.60 1.60 1.59 1.55 1.54 1.55 1.54 1.54 1.57 1.58 1.59 1.58 1.57 1.55 1.56 1.55 1.57 1.57 1.56 1.55 1.55 1.53 1.54 1.52 1.55 1.59
1.18 1.25 1.33 1.40 1.43 1.46 1.49 1.54 1.61 1.65 1.65 1.62 1.61 1.60 1.60 1.60 1.63 1.61 1.55 1.50 1.46 1.43 1.38 1.33 1.32 1.29 1.23 1.17 1.15 1.19 1.24 1.29 1.35 1.41 1.43 1.47 1.54 1.57 1.61 1.61 1.60 1.57 1.58 1.58 1.57 1.57 1.60 1.59 1.60 1.59 1.57 1.54 1.54 1.55 1.56 1.55 1.56 1.56 1.57 1.58 1.56 1.56 1.59
1.15 1.24 1.30 1.40 1.47 1.51 1.53 1.54 1.58 1.64 1.70 1.67 1.64 1.65 1.64 1.66 1.69 1.70 1.66 1.59 1.52 1.49 1.40 1.35 1.34 1.32 1.30 1.21 1.14 1.15 1.19 1.24 1.29 1.35 1.40 1.45 1.49 1.56 1.58 1.57 1.57 1.59 1.58 1.57 1.59 1.59 1.60 1.59 1.58 1.58 1.58 1.55 1.54 1.55 1.58 1.60 1.61 1.61 1.62 1.63 1.57 1.55 1.54
1.08 1.23 1.30 1.34 1.41 1.48 1.52 1.53 1.56 1.60 1.62 1.68 1.70 1.68 1.65 1.66 1.68 1.70 1.69 1.67 1.60 1.54 1.52 1.46 1.39 1.36 1.36 1.32 1.22 1.16 1.15 1.19 1.23 1.29 1.36 1.42 1.47 1.52 1.51 1.51 1.54 1.54 1.56 1.58 1.58 1.56 1.55 1.54 1.54 1.55 1.56 1.57 1.56 1.58 1.59 1.62 1.60 1.61 1.61 1.61 1.54 1.52 1.49
1.01 1.10 1.23 1.32 1.37 1.44 1.51 1.54 1.56 1.58 1.60 1.65 1.72 1.73 1.70 1.66 1.64 1.63 1.67 1.66 1.67 1.63 1.61 1.55 1.46 1.40 1.32 1.32 1.29 1.21 1.18 1.19 1.21 1.23 1.28 1.37 1.41 1.42 1.44 1.49 1.52 1.53 1.52 1.52 1.55 1.54 1.54 1.53 1.53 1.54 1.55 1.58 1.59 1.60 1.62 1.62 1.62 1.59 1.57 1.56 1.53 1.52 1.50
1.02 1.09 1.17 1.28 1.35 1.40 1.47 1.53 1.58 1.61 1.66 1.69 1.70 1.65 1.69 1.70 1.62 1.61 1.65 1.65 1.64 1.61 1.60 1.57 1.54 1.47 1.39 1.35 1.31 1.26 1.17 1.14 1.15 1.16 1.22 1.29 1.35 1.36 1.40 1.45 1.49 1.51 1.53 1.54 1.50 1.53 1.51 1.50 1.51 1.53 1.54 1.56 1.60 1.60 1.61 1.60 1.58 1.60 1.59 1.57 1.56 1.58 1.58
1.05 1.08 1.16 1.25 1.33 1.39 1.45 1.52 1.57 1.63 1.68 1.70 1.70 1.71 1.69 1.71 1.67 1.61 1.59 1.62 1.67 1.67 1.59 1.57 1.56 1.53 1.46 1.40 1.35 1.28 1.23 1.18 1.17 1.15 1.18 1.20 1.27 1.29 1.34 1.39 1.43 1.48 1.50 1.46 1.48 1.50 1.49 1.49 1.51 1.53 1.54 1.55 1.57 1.57 1.57 1.58 1.58 1.59 1.60 1.58 1.58 1.60 1.67
1.08 1.12 1.14 1.21 1.30 1.38 1.44 1.51 1.57 1.62 1.65 1.67 1.70 1.70 1.70 1.71 1.69 1.64 1.60 1.62 1.68 1.69 1.63 1.61 1.59 1.58 1.54 1.46 1.38 1.32 1.30 1.27 1.22 1.17 1.14 1.13 1.17 1.21 1.26 1.33 1.38 1.43 1.42 1.43 1.45 1.48 1.46 1.48 1.51 1.53 1.54 1.54 1.55 1.56 1.57 1.61 1.61 1.65 1.64 1.63 1.63 1.65 1.70
1.04 1.07 1.15 1.20 1.24 1.32 1.42 1.48 1.54 1.58 1.61 1.66 1.70 1.71 1.71 1.72 1.71 1.69 1.63 1.61 1.65 1.67 1.68 1.68 1.63 1.60 1.55 1.49 1.43 1.38 1.34 1.30 1.26 1.21 1.16 1.12 1.14 1.14 1.19 1.25 1.32 1.37 1.36 1.40 1.44 1.43 1.46 1.47 1.51 1.53 1.53 1.53 1.54 1.57 1.58 1.60 1.65 1.70 1.75 1.76 1.76 1.77 1.80
1.03 1.07 1.11 1.16 1.20 1.27 1.33 1.38 1.44 1.49 1.57 1.63 1.70 1.75 1.74 1.73 1.75 1.74 1.68 1.64 1.61 1.65 1.71 1.72 1.70 1.62 1.57 1.53 1.47 1.43 1.37 1.31 1.29 1.22 1.17 1.13 1.13 1.12 1.15 1.18 1.23 1.29 1.30 1.33 1.36 1.39 1.41 1.46 1.47 1.49 1.50 1.49 1.51 1.55 1.59 1.64 1.70 1.74 1.78 1.82 1.85 1.86 1.86
0.99 1.03 1.07 1.12 1.17 1.19 1.23 1.33 1.41 1.47 1.53 1.60 1.67 1.72 1.77 1.79 1.80 1.81 1.76 1.70 1.68 1.65 1.70 1.74 1.75 1.67 1.60 1.56 1.52 1.47 1.42 1.38 1.34 1.27 1.22 1.18 1.15 1.12 1.14 1.15 1.16 1.18 1.23 1.24 1.25 1.30 1.34 1.36 1.37 1.40 1.42 1.45 1.47 1.51 1.58 1.66 1.75 1.81 1.85 1.87 1.87 1.86 1.85
0.96 0.99 1.02 1.06 1.11 1.17 1.22 1.25 1.32 1.42 1.50 1.56 1.64 1.71 1.74 1.78 1.81 1.82 1.79 1.75 1.75 1.71 1.69 1.74 1.77 1.75 1.66 1.60 1.54 1.52 1.48 1.44 1.41 1.39 1.35 1.31 1.25 1.21 1.16 1.13 1.12 1.13 1.13 1.18 1.17 1.19 1.22 1.28 1.29 1.34 1.36 1.39 1.42 1.49 1.60 1.71 1.80 1.89 1.97 1.99 2.02 1.97 1.92
0.92 0.96 1.00 1.06 1.10 1.13 1.16 1.22 1.28 1.34 1.44 1.51 1.58 1.68 1.73 1.75 1.78 1.80 1.79 1.76 1.78 1.78 1.73 1.72 1.74 1.77 1.74 1.67 1.60 1.54 1.53 1.52 1.49 1.46 1.43 1.41 1.38 1.33 1.26 1.20 1.16 1.14 1.15 1.17 1.16 1.16 1.19 1.23 1.26 1.30 1.33 1.37 1.42 1.55 1.68 1.76 1.83 1.96 2.08 2.08 2.01 1.97 1.97
0.83 0.87 0.94 0.99 1.06 1.13 1.19 1.21 1.27 1.32 1.40 1.48 1.54 1.62 1.71 1.76 1.76 1.78 1.80 1.80 1.79 1.77 1.74 1.76 1.72 1.71 1.72 1.71 1.64 1.60 1.59 1.60 1.60 1.56 1.51 1.48 1.46 1.41 1.35 1.30 1.24 1.22 1.22 1.22 1.20 1.21 1.23 1.27 1.28 1.29 1.32 1.39 1.46 1.58 1.70 1.75 1.83 1.92 1.98 1.99 2.01 2.05 2.05
0.76 0.80 0.87 0.95 1.03 1.10 1.17 1.24 1.29 1.33 1.38 1.42 1.47 1.54 1.63 1.73 1.79 1.80 1.76 1.77 1.80 1.78 1.79 1.79 1.72 1.67 1.66 1.67 1.67 1.65 1.65 1.64 1.62 1.60 1.57 1.50 1.46 1.46 1.45 1.41 1.35 1.30 1.27 1.25 1.26 1.28 1.31 1.32 1.32 1.31 1.34 1.40 1.49 1.60 1.68 1.74 1.80 1.87 1.98 2.02 1.98 1.99 1.99
0.75 0.77 0.83 0.91 1.00 1.07 1.14 1.21 1.28 1.32 1.33 1.37 1.41 1.46 1.53 1.63 1.73 1.80 1.81 1.81 1.82 1.82 1.84 1.83 1.75 1.67 1.63 1.62 1.68 1.68 1.68 1.66 1.63 1.62 1.58 1.55 1.51 1.49 1.49 1.49 1.47 1.41 1.33 1.29 1.29 1.31 1.35 1.36 1.33 1.34 1.37 1.42 1.48 1.55 1.63 1.71 1.78 1.83 1.87 1.89 1.91 1.95 2.03
0.73 0.75 0.79 0.86 0.95 1.03 1.09 1.14 1.20 1.24 1.27 1.31 1.38 1.43 1.48 1.56 1.64 1.69 1.74 1.81 1.81 1.83 1.87 1.85 1.80 1.72 1.65 1.64 1.67 1.68 1.67 1.66 1.65 1.63 1.61 1.59 1.54 1.52 1.51 1.52 1.52 1.49 1.44 1.35 1.31 1.33 1.36 1.36 1.36 1.38 1.39 1.44 1.48 1.54 1.63 1.68 1.71 1.78 1.86 1.90 1.96 2.01 2.02
0.71 0.74 0.78 0.83 0.89 0.96 1.04 1.09 1.16 1.22 1.26 1.29 1.32 1.35 1.41 1.48 1.54 1.62 1.71 1.75 1.83 1.86 1.84 1.83 1.82 1.79 1.73 1.69 1.67 1.66 1.67 1.68 1.66 1.63 1.63 1.62 1.60 1.58 1.56 1.53 1.51 1.50 1.48 1.42 1.39 1.37 1.34 1.36 1.38 1.39 1.45 1.48 1.50 1.54 1.60 1.61 1.67 1.70 1.77 1.81 1.80 1.87 1.98
0.70 0.74 0.78 0.84 0.90 0.95 1.01 1.09 1.15 1.20 1.27 1.31 1.35 1.39 1.42 1.45 1.46 1.55 1.70 1.79 1.84 1.82 1.82 1.82 1.83 1.83 1.79 1.75 1.72 1.71 1.70 1.69 1.66 1.63 1.63 1.65 1.65 1.63 1.58 1.54 1.49 1.51 1.54 1.54 1.52 1.41 1.36 1.38 1.39 1.45 1.50 1.54 1.54 1.52 1.54 1.57 1.61 1.66 1.72 1.77 1.79 1.85 1.95
0.69 0.73 0.76 0.81 0.86 0.92 0.99 1.05 1.12 1.18 1.23 1.28 1.34 1.37 1.39 1.40 1.44 1.46 1.52 1.63 1.72 1.82 1.82 1.82 1.81 1.82 1.83 1.81 1.80 1.78 1.75 1.71 1.68 1.65 1.65 1.67 1.67 1.64 1.60 1.56 1.54 1.53 1.56 1.58 1.54 1.47 1.39 1.38 1.42 1.51 1.56 1.57 1.56 1.53 1.51 1.54 1.58 1.62 1.67 1.72 1.76 1.79 1.79
0.72 0.76 0.77 0.83 0.86 0.92 0.98 1.04 1.09 1.16 1.20 1.29 1.31 1.32 1.34 1.33 1.39 1.38 1.40 1.50 1.55 1.64 1.75 1.79 1.78 1.78 1.81 1.82 1.85 1.85 1.83 1.77 1.71 1.69 1.69 1.68 1.67 1.64 1.62 1.60 1.57 1.54 1.57 1.57 1.58 1.57 1.51 1.49 1.52 1.53 1.54 1.56 1.56 1.53 1.51 1.53 1.57 1.60 1.64 1.67 1.69 1.70 1.71
0.79 0.81 0.85 0.90 0.94 0.97 1.03 1.08 1.12 1.19 1.23 1.25 1.28 1.28 1.29 1.32 1.34 1.34 1.35 1.38 1.44 1.49 1.56 1.67 1.73 1.76 1.77 1.79 1.84 1.88 1.89 1.87 1.78 1.72 1.72 1.72 1.68 1.63 1.62 1.59 1.58 1.58 1.60 1.55 1.54 1.50 1.47 1.45 1.49 1.54 1.55 1.57 1.57 1.54 1.53 1.55 1.58 1.60 1.61 1.63 1.66 1.67 1.70
0.85 0.88 0.92 0.96 1.00 1.02 1.04 1.09 1.15 1.19 1.20 1.21 1.24 1.29 1.33 1.34 1.33 1.33 1.33 1.34 1.38 1.39 1.42 1.47 1.55 1.70 1.79 1.80 1.83 1.87 1.90 1.90 1.87 1.78 1.75 1.74 1.68 1.67 1.67 1.67 1.68 1.64 1.64 1.56 1.48 1.44 1.46 1.49 1.50 1.55 1.58 1.58 1.55 1.55 1.53 1.54 1.58 1.60 1.62 1.66 1.70 1.74 1.75
0.84 0.87 0.92 0.96 0.98 0.98 1.02 1.08 1.12 1.15 1.19 1.21 1.20 1.28 1.33 1.34 1.33 1.32 1.32 1.34 1.34 1.34 1.32 1.35 1.42 1.49 1.61 1.77 1.89 1.91 1.93 1.94 1.91 1.87 1.83 1.77 1.74 1.74 1.73 1.74 1.73 1.74 1.71 1.65 1.61 1.53 1.48 1.48 1.48 1.51 1.55 1.58 1.55 1.55 1.54 1.53 1.55 1.61 1.66 1.72 1.76 1.81 1.82
0.82 0.85 0.90 0.95 1.02 1.06 1.07 1.10 1.11 1.12 1.14 1.15 1.19 1.28 1.31 1.33 1.31 1.29 1.29 1.32 1.33 1.31 1.31 1.35 1.40 1.47 1.53 1.61 1.77 1.91 1.95 1.97 1.95 1.93 1.91 1.84 1.82 1.82 1.81 1.84 1.81 1.76 1.72 1.68 1.67 1.62 1.55 1.49 1.48 1.53 1.58 1.61 1.57 1.54 1.55 1.52 1.53 1.59 1.66 1.74 1.82 1.86 1.85
0.89 0.90 0.88 0.92 0.98 1.06 1.06 1.09 1.10 1.11 1.14 1.19 1.24 1.27 1.29 1.29 1.26 1.25 1.27 1.30 1.30 1.29 1.35 1.43 1.48 1.51 1.54 1.56 1.57 1.68 1.85 1.95 1.97 1.96 1.98 1.98 1.92 1.89 1.89 1.89 1.87 1.86 1.80 1.73 1.72 1.73 1.70 1.56 1.47 1.50 1.60 1.65 1.62 1.58 1.58 1.58 1.55 1.62 1.71 1.77 1.80 1.83 1.82
0.89 0.91 0.92 0.94 0.98 1.02 1.05 1.09 1.11 1.14 1.16 1.21 1.23 1.26 1.27 1.26 1.22 1.23 1.25 1.26 1.26 1.33 1.43 1.49 1.53 1.57 1.57 1.58 1.60 1.61 1.65 1.78 1.94 2.01 2.02 2.06 2.04 1.95 1.92 1.96 1.97 1.94 1.90 1.85 1.81 1.80 1.80 1.75 1.61 1.55 1.58 1.64 1.70 1.70 1.69 1.69 1.66 1.66 1.70 1.73 1.73 1.74 1.76
0.85 0.83 0.82 0.85 0.89 0.98 1.03 1.06 1.09 1.12 1.15 1.20 1.22 1.24 1.25 1.23 1.19 1.20 1.23 1.22 1.29 1.39 1.44 1.48 1.55 1.58 1.58 1.57 1.57 1.61 1.65 1.67 1.76 1.93 2.04 2.06 2.07 2.00 1.95 1.99 2.00 1.97 1.97 1.92 1.87 1.83 1.81 1.79 1.74 1.68 1.66 1.66 1.69 1.73 1.74 1.75 1.75 1.74 1.72 1.69 1.66 1.64 1.63
0.87 0.85 0.85 0.86 0.88 0.93 1.00 1.03 1.09 1.12 1.16 1.20 1.21 1.23 1.25 1.23 1.18 1.20 1.20 1.23 1.36 1.40 1.43 1.48 1.52 1.55 1.54 1.53 1.56 1.62 1.67 1.73 1.73 1.79 1.93 2.02 2.06 2.03 2.00 2.00 2.01 2.00 1.98 1.96 1.92 1.86 1.82 1.79 1.77 1.74 1.69 1.71 1.75 1.76 1.79 1.79 1.76 1.73 1.69 1.67 1.66 1.64 1.61
0.82 0.81 0.81 0.82 0.84 0.88 0.93 0.98 1.04 1.10 1.15 1.19 1.20 1.22 1.24 1.25 1.21 1.20 1.20 1.30 1.39 1.41 1.44 1.49 1.53 1.53 1.53 1.54 1.57 1.62 1.71 1.76 1.80 1.77 1.79 1.92 1.99 1.95 1.95 1.97 1.99 1.96 1.97 1.95 1.93 1.92 1.88 1.85 1.79 1.73 1.73 1.72 1.74 1.74 1.77 1.79 1.75 1.72 1.71 1.70 1.65 1.62 1.62
0.81 0.81 0.81 0.83 0.84 0.86 0.87 0.94 1.03 1.09 1.12 1.17 1.21 1.21 1.23 1.24 1.24 1.20 1.26 1.37 1.42 1.46 1.50 1.52 1.55 1.56 1.57 1.59 1.60 1.63 1.71 1.75 1.80 1.81 1.80 1.79 1.85 1.92 1.96 1.95 1.92 1.94 1.94 1.93 1.89 1.91 1.88 1.84 1.79 1.78 1.79 1.77 1.74 1.70 1.71 1.71 1.70 1.70 1.69 1.65 1.62 1.60 1.60
0.79 0.78 0.78 0.78 0.82 0.84 0.84 0.87 0.95 1.04 1.11 1.13 1.20 1.21 1.22 1.24 1.27 1.29 1.32 1.35 1.42 1.47 1.51 1.53 1.53 1.54 1.59 1.62 1.64 1.64 1.68 1.71 1.72 1.72 1.74 1.74 1.75 1.78 1.84 1.94 1.95 1.92 1.89 1.89 1.89 1.87 1.83 1.80 1.75 1.75 1.74 1.69 1.65 1.65 1.64 1.61 1.61 1.63 1.62 1.63 1.61 1.59 1.61
0.79 0.79 0.81 0.82 0.83 0.84 0.84 0.85 0.90 1.00 1.09 1.13 1.20 1.23 1.24 1.26 1.27 1.31 1.34 1.38 1.43 1.47 1.50 1.50 1.53 1.54 1.56 1.60 1.66 1.69 1.71 1.68 1.68 1.68 1.68 1.69 1.68 1.64 1.69 1.75 1.79 1.86 1.85 1.87 1.87 1.83 1.81 1.78 1.72 1.68 1.65 1.60 1.58 1.55 1.53 1.51 1.50 1.50 1.49 1.50 1.49 1.49 1.52
0.82 0.82 0.82 0.81 0.84 0.85 0.83 0.85 0.89 0.98 1.08 1.15 1.23 1.25 1.24 1.24 1.26 1.30 1.32 1.34 1.38 1.41 1.42 1.44 1.49 1.55 1.57 1.61 1.64 1.65 1.70 1.70 1.72 1.72 1.70 1.66 1.65 1.65 1.65 1.64 1.74 1.79 1.79 1.86 1.89 1.85 1.79 1.73 1.69 1.65 1.54 1.51 1.47 1.40 1.36 1.34 1.30 1.29 1.30 1.30 1.30 1.31 1.31
0.85 0.84 0.84 0.88 0.89 0.88 0.88 0.90 0.93 0.98 1.07 1.15 1.23 1.26 1.25 1.25 1.27 1.30 1.34 1.37 1.39 1.41 1.40 1.44 1.48 1.53 1.57 1.60 1.61 1.62 1.61 1.63 1.68 1.71 1.67 1.65 1.66 1.65 1.64 1.66 1.67 1.82 1.87 1.82 1.80 1.77 1.71 1.64 1.54 1.53 1.48 1.42 1.41 1.39 1.30 1.25 1.25 1.27 1.24 1.21 1.17 1.15 1.17
0.85 0.85 0.87 0.91 0.90 0.90 0.89 0.91 0.96 1.00 1.05 1.15 1.23 1.26 1.29 1.29 1.30 1.31 1.35 1.39 1.42 1.42 1.42 1.43 1.44 1.46 1.51 1.56 1.58 1.60 1.59 1.59 1.61 1.68 1.71 1.75 1.72 1.60 1.55 1.56 1.65 1.74 1.71 1.64 1.58 1.54 1.51 1.48 1.46 1.44 1.41 1.37 1.35 1.39 1.40 1.39 1.39 1.39 1.38 1.36 1.33 1.28 1.17
0.93 0.92 0.93 0.94 0.91 0.91 0.91 0.91 0.95 0.98 1.04 1.17 1.22 1.24 1.28 1.31 1.32 1.32 1.36 1.41 1.44 1.46 1.45 1.44 1.41 1.40 1.43 1.46 1.51 1.59 1.62 1.59 1.61 1.62 1.61 1.62 1.62 1.56 1.50 1.47 1.45 1.47 1.50 1.47 1.44 1.44 1.43 1.41 1.39 1.39 1.40 1.40 1.39 1.36 1.36 1.38 1.38 1.37 1.36 1.35 1.33 1.31 1.29